Location: Winthrop
(48.4780°N, 120.1850°W)
Time: 04:41:59
(UTC-08:00)

Vanguard 1 Rocket - Pass Details

Date: 29 November 2023
Orbit: 654 x 4218 km, 34.3° (Epoch: 24 February)

Event Time Altitude Azimuth Distance (km) Brightness Sun altitude
Rises 03:27:37 0° 191° (S) 8,179 12.1 -39.1°
Reaches altitude 10° 03:37:58 10° 171° (S) 6,545 11.7 -37.4°
Maximum altitude 03:46:16 14° 147° (SSE) 5,476 11.5 -36.1°
Drops below altitude 10° 03:52:56 10° 121° (ESE) 5,120 11.7 -35.0°
Sets 03:58:49 0° 98° (E) 5,411 12.3 -34.0°
